Location: Torch Lake Township
(45.0753°N, 85.3586°W)
Time: 08:06:20
(UTC-04:00)

Amateur Radio Satellites - All Passes

Search period start: 31 October 2014 07:36
Search period end: 01 November 2014 07:36
Location: Torch Lake Township, 45.0753°N, 85.3586°W

Satellite Date Start Highest point End Downlink Frequencies (MHz)
Time Altitude Azimuth
OPAL 31 Oct 07:37:35 07:39:50 13° 269° (W) 07:42:04 ?
Hamsat 31 Oct 07:47:04 07:51:17 76° 285° (WNW) 07:55:31 145.90 MHz
STRAND 1 31 Oct 07:51:02 07:56:09 71° 257° (WSW) 08:01:20 ?
Uosat F 31 Oct 08:00:52 08:03:39 15° 303° (WNW) 08:06:26 435.120 FM
MaSat-1 31 Oct 08:12:58 08:15:25 42° 59° (ENE) 08:17:42 437.345 MHz
JAS-2 31 Oct 08:25:09 08:32:24 43° 296° (WNW) 08:39:33 435.800 - 435.900 CW/SSB, 435.910 FM
Saudisat 1A 31 Oct 08:25:40 08:29:23 26° 319° (NW) 08:33:07 436.775 MHz
AO-7 31 Oct 08:44:04 08:49:29 20° 315° (NW) 08:54:54 29.400 - 29.500 MHz
SO-67 31 Oct 08:51:11 08:54:39 82° 102° (ESE) 08:58:06 435.3500 MHz FM
HO-68 31 Oct 09:35:36 09:41:11 24° 92° (E) 09:46:42 435.675 MHz FM
RS-15 31 Oct 09:39:18 09:46:36 20° 261° (W) 09:54:06 29.354 - 29.394 USB, Beacon 29.352 USB
PCSat 31 Oct 09:49:31 09:51:07 11° 26° (NNE) 09:52:42 145.825 MHz
JAS-2 31 Oct 10:13:54 10:15:28 11° 316° (NW) 10:17:01 435.800 - 435.900 CW/SSB, 435.910 FM
Oscar 11 31 Oct 10:28:24 10:31:15 17° 91° (E) 10:34:05 145.825 FM, Beacon 2401.500 USB
ISS 31 Oct 10:40:33 10:43:00 19° 136° (SE) 10:45:28 145.800 FM
KITSAT 1 31 Oct 10:44:38 10:50:52 25° 105° (ESE) 10:57:06 435.175 FM
FUNcube-1 31 Oct 10:46:27 10:47:08 10° 88° (E) 10:47:49 145.950 - 145.970 MHz USB
Sapphire 31 Oct 11:09:30 11:14:08 27° 44° (NE) 11:18:45 437.095 MHz 1200 baud AX-25 AFSK
HO-68 31 Oct 11:22:20 11:29:31 72° 290° (WNW) 11:36:39 435.675 MHz FM
UKube-1 31 Oct 11:28:13 11:32:36 72° 103° (ESE) 11:36:57 145.840 MHz, 145.915 MHz
PCSat 31 Oct 11:31:01 11:36:07 39° 49° (NE) 11:41:11 145.825 MHz
ZACube-1 31 Oct 11:37:05 11:41:02 38° 97° (E) 11:44:54 437.345 MHz
Oscar 11 31 Oct 12:03:33 12:07:42 48° 288° (WNW) 12:11:50 145.825 FM, Beacon 2401.500 USB
SO-50 31 Oct 12:12:58 12:17:23 58° 121° (ESE) 12:21:56 436.795 FM
ISS 31 Oct 12:16:05 12:19:24 68° 333° (NNW) 12:22:44 145.800 FM
FUNcube-1 31 Oct 12:19:52 12:24:04 73° 285° (WNW) 12:28:12 145.950 - 145.970 MHz USB
KITSAT 1 31 Oct 12:37:21 12:45:26 79° 305° (NW) 12:53:34 435.175 FM
Oscar 19 31 Oct 12:46:10 12:48:48 14° 57° (ENE) 12:51:25 437.125 CW, 437.150 USB
JAS-1B 31 Oct 12:47:03 12:50:21 16° 54° (NE) 12:53:41 435.800 - 435.900 CW/SSB
Sapphire 31 Oct 12:52:35 12:57:55 58° 244° (WSW) 13:03:13 437.095 MHz 1200 baud AX-25 AFSK
UOSAT-12 31 Oct 12:58:54 13:02:03 18° 111° (ESE) 13:05:15 437.025 FM, 437.400 FM
UKube-1 31 Oct 13:06:04 13:08:13 14° 301° (WNW) 13:10:22 145.840 MHz, 145.915 MHz
HO-68 31 Oct 13:11:46 13:16:01 17° 311° (NW) 13:20:17 435.675 MHz FM
ZACube-1 31 Oct 13:14:02 13:17:12 21° 295° (WNW) 13:20:19 437.345 MHz
PCSat 31 Oct 13:14:34 13:19:29 36° 248° (WSW) 13:24:22 145.825 MHz
AO-27 31 Oct 13:22:28 13:24:56 14° 56° (NE) 13:27:25 436.795 MHz FM
Oscar 16 31 Oct 13:30:47 13:35:22 34° 66° (ENE) 13:39:58 437.025 USB, Beacon 2401.1428
Saudisat 1A 31 Oct 13:31:38 13:34:06 14° 32° (NNE) 13:36:32 436.775 MHz
Gurwin Techsat 1B 31 Oct 13:39:38 13:40:11 10° 53° (NE) 13:40:45 435.225 FM
ISS 31 Oct 13:53:36 13:56:30 27° 353° (N) 13:59:25 145.800 FM
SO-50 31 Oct 13:54:33 13:58:17 24° 321° (NW) 14:02:07 436.795 FM
Uribyol 2 31 Oct 14:03:44 14:08:14 30° 65° (ENE) 14:12:46 436.500 FM
AO-Echo 31 Oct 14:06:08 14:10:42 36° 67° (ENE) 14:15:24 ?
ITAMSAT 1 31 Oct 14:11:32 14:16:09 33° 66° (ENE) 14:20:48 435.822 SSB
AO-7 31 Oct 14:12:36 14:15:44 13° 37° (NE) 14:18:52 29.400 - 29.500 MHz
Oscar 19 31 Oct 14:22:16 14:27:25 89° 255° (WSW) 14:32:35 437.125 CW, 437.150 USB
JAS-1B 31 Oct 14:34:32 14:40:16 82° 255° (WSW) 14:46:04 435.800 - 435.900 CW/SSB
KITSAT 1 31 Oct 14:35:34 14:42:10 27° 329° (NNW) 14:48:49 435.175 FM
UOSAT-12 31 Oct 14:37:07 14:41:44 63° 309° (NW) 14:46:26 437.025 FM, 437.400 FM
AO-27 31 Oct 14:58:25 15:03:39 84° 74° (ENE) 15:08:55 436.795 MHz FM
Saudisat 1A 31 Oct 15:10:03 15:14:29 69° 52° (NE) 15:18:53 436.775 MHz
Oscar 16 31 Oct 15:10:04 15:14:42 33° 264° (W) 15:19:21 437.025 USB, Beacon 2401.1428
Gurwin Techsat 1B 31 Oct 15:13:53 15:19:07 63° 72° (ENE) 15:24:22 435.225 FM
TMSAT-1 31 Oct 15:20:21 15:25:29 54° 70° (ENE) 15:30:40 436.925 FM
ISS 31 Oct 15:30:48 15:33:49 31° 13° (NNE) 15:36:51 145.800 FM
Uribyol 2 31 Oct 15:42:43 15:47:35 39° 262° (W) 15:52:29 436.500 FM
AO-Echo 31 Oct 15:45:05 15:49:29 31° 265° (W) 15:54:03 ?
ITAMSAT 1 31 Oct 15:50:51 15:55:36 35° 263° (W) 16:00:23 435.822 SSB
AO-7 31 Oct 15:58:44 16:06:28 47° 60° (ENE) 16:14:14 29.400 - 29.500 MHz
Uosat F 31 Oct 15:58:47 16:02:24 20° 61° (ENE) 16:06:02 435.120 FM
Oscar 19 31 Oct 16:05:48 16:07:29 11° 273° (W) 16:09:09 437.125 CW, 437.150 USB
UOSAT-12 31 Oct 16:20:08 16:22:50 15° 330° (NNW) 16:25:32 437.025 FM, 437.400 FM
KITSAT 1 31 Oct 16:36:09 16:40:54 16° 359° (N) 16:45:39 435.175 FM
AO-27 31 Oct 16:41:25 16:43:50 13° 272° (W) 16:46:15 436.795 MHz FM
Saudisat 1A 31 Oct 16:50:59 16:53:31 15° 250° (WSW) 16:56:03 436.775 MHz
JAS-2 31 Oct 16:55:01 17:00:16 26° 57° (ENE) 17:05:59 435.800 - 435.900 CW/SSB, 435.910 FM
Gurwin Techsat 1B 31 Oct 16:55:53 16:59:31 19° 269° (W) 17:03:11 435.225 FM
TMSAT-1 31 Oct 17:01:43 17:05:44 22° 268° (W) 17:09:47 436.925 FM
ISS 31 Oct 17:07:25 17:10:46 76° 212° (SSW) 17:14:06 145.800 FM
Hamsat 31 Oct 17:09:52 17:10:53 11° 60° (ENE) 17:11:54 145.90 MHz
Uosat F 31 Oct 17:35:48 17:40:45 59° 259° (WSW) 17:45:45 435.120 FM
AO-7 31 Oct 17:51:27 17:59:16 45° 260° (W) 18:07:09 29.400 - 29.500 MHz
OPAL 31 Oct 18:04:17 18:07:33 17° 93° (E) 18:10:47 ?
KITSAT 1 31 Oct 18:33:15 18:39:43 25° 29° (NNE) 18:46:09 435.175 FM
JAS-2 31 Oct 18:38:17 18:44:35 69° 259° (W) 18:51:48 435.800 - 435.900 CW/SSB, 435.910 FM
Hamsat 31 Oct 18:42:00 18:46:11 83° 257° (WSW) 18:50:23 145.90 MHz
ISS 31 Oct 18:45:47 18:46:56 11° 229° (SW) 18:48:05 145.800 FM
SO-50 31 Oct 19:02:44 19:06:12 19° 35° (NE) 19:09:42 436.795 FM
SO-67 31 Oct 19:25:34 19:28:42 34° 72° (ENE) 19:31:51 435.3500 MHz FM
OPAL 31 Oct 19:41:57 19:46:51 61° 291° (WNW) 19:51:42 ?
RS-15 31 Oct 19:48:41 19:51:20 11° 93° (E) 19:53:58 29.354 - 29.394 USB, Beacon 29.352 USB
STRAND 1 31 Oct 19:59:54 20:04:34 33° 96° (E) 20:09:11 ?
HO-68 31 Oct 20:07:05 20:12:32 24° 54° (NE) 20:18:01 435.675 MHz FM
KITSAT 1 31 Oct 20:28:30 20:36:37 73° 54° (NE) 20:44:40 435.175 FM
JAS-2 31 Oct 20:29:06 20:31:12 12° 280° (W) 20:33:23 435.800 - 435.900 CW/SSB, 435.910 FM
SO-50 31 Oct 20:42:33 20:47:26 90° 56° (NE) 20:52:20 436.795 FM
Oscar 10/S400 31 Oct 20:53:36 21:26:26 48° 196° (SSW) 04:58:42 145.825 - 145.975 CW/USB, Beacon 145.810 USB
SO-67 31 Oct 20:59:46 21:01:48 15° 268° (W) 21:03:50 435.3500 MHz FM
AO-40 31 Oct 21:13:37 22:19:47 13° 110° (ESE) 23:05:21 Beacon 2401.320
UOSAT-12 31 Oct 21:25:08 21:29:23 32° 43° (NE) 21:33:35 437.025 FM, 437.400 FM
Oscar 11 31 Oct 21:25:38 21:28:37 19° 64° (ENE) 21:31:36 145.825 FM, Beacon 2401.500 USB
STRAND 1 31 Oct 21:39:07 21:43:43 34° 294° (WNW) 21:48:17 ?
FUNcube-1 31 Oct 21:44:03 21:46:16 14° 61° (ENE) 21:48:28 145.950 - 145.970 MHz USB
RS-15 31 Oct 21:50:24 22:01:01 58° 115° (ESE) 22:11:35 29.354 - 29.394 USB, Beacon 29.352 USB
HO-68 31 Oct 21:52:20 21:59:31 79° 254° (WSW) 22:06:45 435.675 MHz FM
KITSAT 1 31 Oct 22:24:46 22:31:19 28° 254° (WSW) 22:37:52 435.175 FM
SO-50 31 Oct 22:25:09 22:27:18 13° 252° (WSW) 22:29:27 436.795 FM
UKube-1 31 Oct 22:25:18 22:29:39 81° 75° (ENE) 22:34:03 145.840 MHz, 145.915 MHz
ZACube-1 31 Oct 22:35:06 22:39:21 41° 71° (ENE) 22:43:31 437.345 MHz
Oscar 11 31 Oct 23:00:17 23:04:27 47° 261° (W) 23:08:39 145.825 FM, Beacon 2401.500 USB
UOSAT-12 31 Oct 23:05:12 23:09:38 41° 242° (WSW) 23:13:58 437.025 FM, 437.400 FM
FUNcube-1 31 Oct 23:17:35 23:22:06 74° 258° (WSW) 23:26:33 145.950 - 145.970 MHz USB
MaSat-1 31 Oct 23:24:02 23:27:51 72° 298° (WNW) 23:31:17 437.345 MHz
HO-68 31 Oct 23:44:35 23:48:20 15° 273° (W) 23:52:06 435.675 MHz FM
RS-15 01 Nov 00:03:06 00:13:38 50° 320° (NW) 00:24:17 29.354 - 29.394 USB, Beacon 29.352 USB
UKube-1 01 Nov 00:05:39 00:06:24 10° 272° (W) 00:07:09 145.840 MHz, 145.915 MHz
ZACube-1 01 Nov 00:12:27 00:15:53 21° 267° (W) 00:19:18 437.345 MHz
Sapphire 01 Nov 01:56:17 01:58:44 13° 103° (ESE) 02:01:11 437.095 MHz 1200 baud AX-25 AFSK
AO-Echo 01 Nov 02:14:31 02:15:04 10° 85° (E) 02:15:36 ?
JAS-1B 01 Nov 02:14:32 02:20:36 28° 94° (E) 02:27:30 435.800 - 435.900 CW/SSB
PCSat 01 Nov 02:15:59 02:20:02 22° 107° (ESE) 02:24:07 145.825 MHz
RS-15 01 Nov 02:20:25 02:29:22 28° 353° (N) 02:38:30 29.354 - 29.394 USB, Beacon 29.352 USB
Oscar 19 01 Nov 02:32:18 02:36:39 28° 95° (E) 02:41:00 437.125 CW, 437.150 USB
AO-27 01 Nov 03:10:02 03:14:23 26° 94° (E) 03:18:41 436.795 MHz FM
Oscar 16 01 Nov 03:18:59 03:24:07 74° 103° (ESE) 03:29:14 437.025 USB, Beacon 2401.1428
Gurwin Techsat 1B 01 Nov 03:28:50 03:32:51 21° 92° (E) 03:36:51 435.225 FM
TMSAT-1 01 Nov 03:35:08 03:38:44 18° 90° (E) 03:42:18 436.925 FM
Sapphire 01 Nov 03:35:54 03:41:19 88° 120° (ESE) 03:46:47 437.095 MHz 1200 baud AX-25 AFSK
AO-Echo 01 Nov 03:49:19 03:54:41 77° 103° (ESE) 03:59:57 ?
Uribyol 2 01 Nov 03:52:57 03:58:09 65° 102° (ESE) 04:03:17 436.500 FM
PCSat 01 Nov 03:57:39 04:03:00 61° 306° (NW) 04:08:24 145.825 MHz
ITAMSAT 1 01 Nov 04:01:03 04:06:18 72° 103° (ESE) 04:11:29 435.822 SSB
JAS-1B 01 Nov 04:04:33 04:11:29 67° 289° (WNW) 04:19:48 435.800 - 435.900 CW/SSB
Oscar 19 01 Nov 04:11:21 04:16:06 40° 292° (WNW) 04:20:51 437.125 CW, 437.150 USB
RS-15 01 Nov 04:36:03 04:45:59 36° 27° (NNE) 04:56:13 29.354 - 29.394 USB, Beacon 29.352 USB
AO-27 01 Nov 04:49:07 04:54:04 44° 292° (WNW) 04:58:59 436.795 MHz FM
Oscar 16 01 Nov 04:59:42 05:02:53 17° 301° (WNW) 05:06:04 437.025 USB, Beacon 2401.1428
Gurwin Techsat 1B 01 Nov 05:07:58 05:13:09 55° 289° (WNW) 05:18:19 435.225 FM
TMSAT-1 01 Nov 05:13:51 05:19:06 64° 288° (WNW) 05:24:20 436.925 FM
OPAL 01 Nov 05:20:27 05:25:13 41° 66° (ENE) 05:29:56 ?
Sapphire 01 Nov 05:21:31 05:25:29 20° 322° (NW) 05:29:29 437.095 MHz 1200 baud AX-25 AFSK
AO-Echo 01 Nov 05:29:25 05:32:48 17° 301° (WNW) 05:36:10 ?
Uribyol 2 01 Nov 05:33:30 05:37:07 19° 300° (WNW) 05:40:43 436.500 FM
Uosat F 01 Nov 05:41:35 05:46:15 36° 97° (E) 05:50:53 435.120 FM
ITAMSAT 1 01 Nov 05:41:48 05:45:13 18° 301° (WNW) 05:48:36 435.822 SSB
PCSat 01 Nov 05:44:31 05:47:35 15° 328° (NNW) 05:50:39 145.825 MHz
JAS-2 01 Nov 05:46:14 05:51:56 21° 86° (E) 05:57:30 435.800 - 435.900 CW/SSB, 435.910 FM
AO-7 01 Nov 05:49:56 05:58:07 57° 103° (ESE) 06:06:17 29.400 - 29.500 MHz
JAS-1B 01 Nov 05:57:31 06:01:07 15° 307° (NW) 06:04:59 435.800 - 435.900 CW/SSB
Hamsat 01 Nov 06:26:47 06:29:15 15° 90° (E) 06:31:44 145.90 MHz
RS-15 01 Nov 06:48:50 07:00:03 87° 55° (NE) 07:11:44 29.354 - 29.394 USB, Beacon 29.352 USB
Saudisat 1A 01 Nov 06:57:13 07:01:36 85° 125° (SE) 07:06:02 436.775 MHz
TMSAT-1 01 Nov 06:57:13 06:58:00 10° 307° (NW) 06:58:46 436.925 FM
OPAL 01 Nov 06:59:54 07:04:12 27° 263° (W) 07:08:29 ?
STRAND 1 01 Nov 07:17:37 07:22:39 59° 71° (ENE) 07:27:45 ?
Uosat F 01 Nov 07:20:33 07:24:56 30° 295° (WNW) 07:29:18 435.120 FM
MaSat-1 01 Nov 07:31:50 07:33:42 18° 53° (NE) 07:35:29 437.345 MHz
